Terminal Aerodrome Forecast
Issued by NWS

Home | Current Version | Previous Version | Text Only | Print | Product List | Glossary On
Versions: 1 2 3 4 5 6 7 8 9 10 11 12 13 14 15 16 17 18 19 20 21
000
FTUS41 KBGM 240500
TAFRME
TAF
KRME 240539Z 2406/2506 11010KT P6SM OVC080 WS020/18045KT
     FM240800 13015KT 5SM -RA BR BKN015 OVC025 WS020/17045KT
     FM241300 14015KT P6SM OVC025 WS020/19045KT
     FM241800 14015KT P6SM BKN045 WS020/20040KT
     FM250000 23012G22KT P6SM OVC040=

USA.gov is the U.S. government's official web portal to all federal, state and local government web resources and services.